Regional Weather Roundup
Issued by NWS Charleston, WV

Home | Current Version | Previous Version | Text Only | Print | Product List | Glossary Off
Versions: 1 2 3 4 5 6 7 8 9 10 11 12 13 14 15 16 17 18 19 20 21 22 23 24 25 26 27 28 29 30 31 32 33 34 35 36 37 38 39 40 41 42 43 44 45 46 47 48 49 50

000
ASUS41 KRLX 092210
RWRRLX
West Virginia Regional Weather Roundup
National Weather Service Charleston WV
600 PM EDT WED JUL 09 2014

Note: "fair" indicates few or no clouds below 12,000 feet with no
significant weather and/or obstructions to visibility.

WVZ003-092300-
Northern Panhandle of West Virginia

CITY           SKY/WX    TMP DP  RH WIND       PRES   REMARKS
WHEELING       SUNNY     80  57  45 W8        29.92F
$$

WVZ009-092300-
Northwest West Virginia

CITY           SKY/WX    TMP DP  RH WIND       PRES   REMARKS
PARKERSBURG    MOSUNNY   83  59  44 NW9       29.95F
$$

WVZ006-092300-
Western West Virginia

CITY           SKY/WX    TMP DP  RH WIND       PRES   REMARKS
HUNTINGTON     MOSUNNY   87  53  31 W8        29.92F
$$

WVZ015-092300-
West Central West Virginia

CITY           SKY/WX    TMP DP  RH WIND       PRES   REMARKS
CHARLESTON     MOSUNNY   85  60  42 VRB3      29.93F
$$

WVZ031-092300-
North Central West Virginia

CITY           SKY/WX    TMP DP  RH WIND       PRES   REMARKS
CLARKSBURG     SUNNY     80  57  45 W9        29.94S
MORGANTOWN     MOSUNNY   84  57  39 VRB7      29.95R
$$

WVZ035-042-045-092300-
South Central West Virginia

CITY           SKY/WX    TMP DP  RH WIND       PRES   REMARKS
BECKLEY        MOSUNNY   76  61  59 SW7       30.03S
BLUEFIELD      PTSUNNY   76  58  53 NW8       30.06S
LEWISBURG      PTSUNNY   80  56  43 W8        30.01S
$$

WVZ047-092300-
Northern Mountains of West Virginia

CITY           SKY/WX    TMP DP  RH WIND       PRES   REMARKS
ELKINS         CLOUDY    78  60  53 VRB5      30.00R
$$

WVZ052-092300-
Eastern Panhandle of West Virginia

CITY           SKY/WX    TMP DP  RH WIND       PRES   REMARKS
MARTINSBURG    PTSUNNY   82  65  56 S10       29.89R
PETERSBURG     MOSUNNY   82  53  36 W10       29.93R
$$



USA.gov is the U.S. government's official web portal to all federal, state and local government web resources and services.